[[{"header":{"parameterUnit":"m.s-1","parameterCategory":1,"la1":30.2991,"la2":30.254,"lo1":-89.0895,"lo2":-89.0444,"dy":0.0017,"dx":0.0017,"nx":28,"ny":28,"refTime":"2024-07-03T03:00:00:Z","depth":0,"parameterNumber":2,"parameterNumberName":"U-component_of_WINDS"},"data":[0,0,0,0,0,0,0,0,0,0,0,0,0,0,0,0,0,0,0,0,0,0,0,0,0,0,0,0,0,0,0,0,0,0,0,0,0,0,0,0,0,0,0,0,0,0,0,0,0,0,0,0,0,0,0,0,0,0,2.2508,2.2508,0,2.2531,2.2531,2.2532,2.2484,2.2483,2.2481,2.248,2.2503,2.2505,2.2507,0,0,0,0,0,0,0,0,0,0,0,0,0,2.242,2.2422,2.2508,2.2508,2.2508,2.2531,2.2531,2.2532,2.2485,2.2483,2.2481,2.2479,2.2502,2.2505,2.2507,0,0,0,0,0,0,0,0,0,0,0,0,0,2.2452,2.2422,2.2508,2.2487,2.2486,2.2531,2.2531,2.2532,2.2485,2.2483,2.248,2.2478,2.2501,2.2504,2.2508,2.2573,0,0,2.2517,2.2518,0,0,0,0,0,0,0,0,2.245,2.2455,2.249,2.2489,2.2487,2.2502,2.2509,2.2546,2.2486,2.2485,2.248,2.2477,2.2505,2.2507,2.2517,2.2574,2.2575,2.2517,2.2519,2.252,2.2521,0,0,0,0,0,0,0,2.2448,2.2454,2.2517,2.2491,2.2489,2.2477,2.2479,2.2516,2.2508,2.2485,2.2482,2.2485,2.2503,2.2514,2.2517,2.2575,2.2517,2.252,2.2522,2.2523,2.2684,2.2686,0,0,0,0,0,0,2.2449,2.2453,2.2516,2.2518,2.2463,2.248,2.2482,2.25,2.2507,2.2506,2.2487,2.2483,2.251,2.2513,2.2518,2.2592,2.252,2.2523,2.2525,2.2682,2.2685,2.2687,0,0,0,0,0,0,2.2447,2.2455,2.2515,2.2484,2.2491,2.2484,2.2504,2.2502,2.2512,2.2509,2.2507,2.2499,2.2508,2.2513,2.2559,2.2592,2.2525,2.2527,2.2679,2.2683,2.2686,2.2742,0,0,0,0,0,0,2.2445,2.2455,2.248,2.2485,2.2493,2.2557,2.2506,2.2504,2.2518,2.2512,2.252,2.2519,2.2507,2.2554,2.2562,2.2595,2.253,2.2676,2.2681,2.2685,2.2738,2.2748,2.2756,0,0,0,0,0,2.2442,2.2496,2.2482,2.2489,2.2524,2.2559,2.2563,2.2548,2.2521,2.2545,2.2543,2.2518,2.2588,2.256,2.2568,2.2602,2.2674,2.2679,2.2684,2.2733,2.2746,2.2756,0,0,0,0,0,0,2.2495,2.2496,2.248,2.2538,2.2548,2.2551,2.2582,2.2562,2.2581,2.2575,2.2556,2.2558,2.2607,2.261,2.2578,2.2664,2.2626,2.2633,2.266,2.2672,2.2681,2.2678,2.2532,0,0,0,0,0,2.2513,2.2542,2.2541,2.2591,2.2598,2.2589,2.2603,2.2591,2.2601,2.2606,2.2607,2.2617,2.2641,2.2657,2.2679,2.2739,2.2738,2.2766,2.2775,2.2783,2.2789,2.2817,2.2829,2.2705,2.2705,2.2705,0,0,2.2551,2.2555,2.2575,2.2602,2.2609,2.2637,2.2593,2.2626,2.2646,2.2611,2.2652,2.2654,2.2664,2.2716,2.2739,2.272,2.2823,2.279,2.2796,2.2798,2.2824,2.2836,2.2846,2.2709,2.2708,2.2708,0,0,2.2634,2.2642,2.2683,2.269,2.2701,2.2695,2.2705,2.271,2.2709,2.2751,2.2724,2.2748,2.2791,2.2798,2.2808,2.2892,2.2869,2.29,2.2948,2.2976,2.2985,2.2994,2.3021,2.3031,2.2906,2.2907,2.2907,0,2.268,2.2722,2.2707,2.274,2.2752,2.2721,2.2761,2.277,2.2787,2.2795,2.2774,2.2824,2.283,2.2881,2.2902,2.2912,2.292,2.2898,2.2985,2.2994,2.3001,2.3027,2.3037,2.291,2.291,2.2909,2.2909,0,2.2776,2.2806,2.2838,2.2854,2.287,2.2907,2.2896,2.2914,2.29,2.2895,2.2937,2.2943,2.2963,2.2976,2.2963,2.3025,2.3012,2.2989,2.2949,2.3017,2.304,2.305,2.2915,2.2914,2.2913,2.2912,0,0,2.2892,2.2899,2.2911,2.2916,2.2926,2.2948,2.2983,2.3003,2.3017,2.3031,2.3058,2.3094,2.3071,2.3082,2.307,2.3095,2.3157,2.3068,2.3068,2.3081,2.3222,2.3237,2.3249,2.3144,2.3146,2.3147,2.322,0,2.2972,2.3031,2.3018,2.3076,2.3101,2.3072,2.3102,2.311,2.3107,2.3128,2.3124,2.3148,2.3119,2.3125,2.3148,2.3145,2.3185,2.314,2.3166,2.3167,2.3161,2.3262,2.3279,2.3348,2.323,2.3231,2.3232,0,2.3073,2.3088,2.3149,2.3151,2.3161,2.3189,2.3204,2.3226,2.3234,2.3229,2.3241,2.3224,2.3257,2.3219,2.3263,2.3232,2.3243,2.3243,2.3245,2.3244,2.3202,2.3261,2.337,2.3379,2.3247,2.3246,2.3245,0,2.3147,2.3183,2.3223,2.323,2.3235,2.3254,2.3257,2.3263,2.3275,2.329,2.3297,2.3316,2.3325,2.3339,2.3327,2.3301,2.3372,2.3334,2.3367,2.3367,2.3381,2.3379,2.3489,2.3393,2.3393,2.3393,2.3392,0,2.3235,2.3272,2.3256,2.3281,2.3321,2.3305,2.3345,2.3344,2.335,2.3373,2.335,2.3372,2.3355,2.3375,2.3366,2.3402,2.3408,2.3403,2.34,2.3404,2.3404,2.3408,2.3401,2.3395,2.3395,2.3394,2.3394,0,2.3324,2.3315,2.3356,2.3357,2.3358,2.3387,2.3387,2.3409,2.3404,2.3433,2.3439,2.3431,2.3454,2.3443,2.3467,2.3461,2.3506,2.3498,2.3503,2.3499,2.3532,2.3528,2.3646,2.3659,2.3558,2.3559,2.3559,0,2.3379,2.3407,2.341,2.3423,2.3427,2.345,2.3462,2.3447,2.346,2.3471,2.3491,2.3511,2.3526,2.3563,2.3559,2.3577,2.3566,2.3607,2.3569,2.3571,2.3563,2.356,2.3561,2.3613,2.3614,2.3615,2.3616,0,2.3477,2.347,2.3489,2.3505,2.3519,2.3532,2.3542,2.3554,2.3539,2.3555,2.3577,2.3589,2.3613,2.3632,2.3647,2.3649,2.3629,2.3629,2.3636,2.3639,2.3639,2.3636,2.352,2.3625,2.3624,2.3624,2.3623,2.3623,2.3548,2.357,2.3575,2.3595,2.3601,2.3611,2.363,2.3627,2.3646,2.3663,2.3653,2.3679,2.3684,2.3702,2.3707,2.3726,2.371,2.3722,2.3725,2.3727,2.373,2.3639,2.3729,2.3729,2.3729,2.3728,2.3728,0,2.3641,2.3643,2.3662,2.3676,2.3691,2.3672,2.3682,2.3696,2.3718,2.3726,2.374,2.3765,2.3783,2.3781,2.3797,2.3813,2.3804,2.3817,2.3814,2.3815,2.3745,2.3735,2.3824,2.3824,2.3824,2.3824,2.3824,2.3824,2.3692,2.3727,2.3721,2.3758,2.376,2.3783,2.379,2.3798,2.3804,2.3832,2.3847,2.3845,2.3847,2.3864,2.3879,2.3878,2.3884,2.39,2.3895,2.383,2.382,2.3811,2.3801,2.3902,2.3902,2.3962,2.3963,2.3963]},{"header":{"parameterUnit":"m.s-1","parameterCategory":1,"la1":30.2991,"la2":30.254,"lo1":-89.0895,"lo2":-89.0444,"dy":0.0017,"dx":0.0017,"nx":28,"ny":28,"refTime":"2024-07-03T03:00:00:Z","depth":0,"parameterNumber":3,"parameterNumberName":"V-component_of_WINDS"},"data":[0,0,0,0,0,0,0,0,0,0,0,0,0,0,0,0,0,0,0,0,0,0,0,0,0,0,0,0,0,0,0,0,0,0,0,0,0,0,0,0,0,0,0,0,0,0,0,0,0,0,0,0,0,0,0,0,0,0,3.5239,3.5239,0,3.5271,3.5271,3.5272,3.523,3.5229,3.5227,3.5226,3.5256,3.5259,3.5261,0,0,0,0,0,0,0,0,0,0,0,0,0,3.5138,3.514,3.5239,3.5239,3.524,3.5271,3.5271,3.5272,3.5231,3.5229,3.5227,3.5225,3.5256,3.5258,3.5261,0,0,0,0,0,0,0,0,0,0,0,0,0,3.5177,3.514,3.5239,3.5223,3.5222,3.5271,3.5271,3.5272,3.5231,3.5229,3.5227,3.5225,3.5255,3.5258,3.5261,3.5327,0,0,3.5271,3.5273,0,0,0,0,0,0,0,0,3.5175,3.5181,3.5225,3.5224,3.5223,3.5244,3.5247,3.529,3.5232,3.5227,3.5226,3.5223,3.5254,3.5257,3.5268,3.5328,3.5329,3.5272,3.5274,3.5275,3.5276,0,0,0,0,0,0,0,3.5172,3.5179,3.5251,3.5225,3.5224,3.5213,3.5216,3.5255,3.5253,3.5228,3.5225,3.5229,3.5253,3.5265,3.5269,3.533,3.5272,3.5275,3.5277,3.5278,3.5442,3.5444,0,0,0,0,0,0,3.5172,3.5177,3.525,3.5252,3.5193,3.5217,3.522,3.524,3.5252,3.5252,3.5231,3.5227,3.5261,3.5265,3.527,3.5345,3.5275,3.5278,3.528,3.544,3.5443,3.5445,0,0,0,0,0,0,3.517,3.5179,3.5249,3.5214,3.5222,3.5221,3.5243,3.5242,3.5254,3.5255,3.5254,3.5244,3.5259,3.5265,3.5312,3.5345,3.528,3.5283,3.5437,3.5441,3.5444,3.5497,0,0,0,0,0,0,3.5167,3.5178,3.5204,3.5215,3.5224,3.5293,3.5245,3.5244,3.526,3.5255,3.5267,3.5267,3.5258,3.5308,3.5316,3.5349,3.5285,3.5434,3.5439,3.5443,3.5492,3.5502,3.551,0,0,0,0,0,3.5163,3.5218,3.5205,3.5215,3.5256,3.5295,3.53,3.5289,3.5263,3.5288,3.5288,3.5266,3.5341,3.5313,3.5321,3.5356,3.5432,3.5437,3.5442,3.5488,3.55,3.551,0,0,0,0,0,0,3.521,3.5219,3.5205,3.5265,3.5279,3.5288,3.5319,3.5302,3.5324,3.5318,3.5303,3.5306,3.5357,3.5361,3.533,3.5419,3.5382,3.5389,3.5414,3.5425,3.5434,3.5431,3.5288,0,0,0,0,0,3.5227,3.5259,3.5264,3.5316,3.5324,3.5321,3.5337,3.5327,3.5341,3.5347,3.5351,3.5365,3.5391,3.5408,3.5433,3.5493,3.5494,3.5521,3.553,3.5538,3.5544,3.5574,3.5585,3.5463,3.5463,3.5463,0,0,3.5263,3.5272,3.5292,3.5326,3.5336,3.5367,3.5326,3.5361,3.5384,3.5352,3.5397,3.54,3.5414,3.5468,3.5492,3.5473,3.5578,3.5544,3.555,3.5552,3.558,3.5592,3.5602,3.5466,3.5466,3.5465,0,0,3.5344,3.5355,3.5398,3.5409,3.5425,3.5422,3.5432,3.5443,3.5444,3.5489,3.5465,3.5491,3.5537,3.5548,3.5559,3.5642,3.5622,3.5651,3.5697,3.5727,3.5736,3.5745,3.5772,3.5783,3.5657,3.5657,3.5657,0,3.5386,3.5433,3.5422,3.5459,3.5473,3.5446,3.5489,3.55,3.5523,3.5532,3.5512,3.5568,3.5576,3.563,3.565,3.5661,3.5671,3.5649,3.5736,3.5744,3.5752,3.5778,3.5789,3.566,3.566,3.566,3.5659,0,3.5483,3.5516,3.5549,3.5572,3.559,3.563,3.5623,3.5642,3.5631,3.563,3.5675,3.5683,3.5708,3.572,3.571,3.5773,3.5761,3.5739,3.5701,3.5767,3.5791,3.5801,3.5665,3.5664,3.5663,3.5662,0,0,3.5594,3.5609,3.5621,3.563,3.5646,3.567,3.5708,3.5732,3.5748,3.5765,3.5794,3.5834,3.5813,3.5825,3.5816,3.5842,3.5905,3.5816,3.5816,3.583,3.5972,3.5988,3.6,3.5892,3.5894,3.5896,3.597,0,3.5673,3.5738,3.5729,3.5791,3.582,3.5795,3.5827,3.5839,3.5839,3.5862,3.5861,3.5889,3.586,3.5867,3.5892,3.5892,3.5933,3.5887,3.5918,3.5919,3.5913,3.6013,3.6029,3.6099,3.598,3.5982,3.5983,0,3.5774,3.5794,3.5859,3.5868,3.588,3.5909,3.593,3.5953,3.5966,3.5963,3.5978,3.5963,3.5998,3.5961,3.6009,3.5978,3.599,3.5992,3.5994,3.5995,3.5954,3.6014,3.6122,3.6132,3.5998,3.5997,3.5996,0,3.5845,3.5889,3.5933,3.5942,3.5954,3.5974,3.598,3.599,3.6005,3.6023,3.6032,3.6054,3.6066,3.6083,3.6073,3.6048,3.6122,3.6085,3.6119,3.612,3.6135,3.6134,3.6244,3.6146,3.6146,3.6146,3.6146,0,3.5933,3.5974,3.5964,3.5992,3.6035,3.6024,3.6067,3.607,3.6079,3.6104,3.6085,3.6109,3.6096,3.612,3.6113,3.6152,3.6158,3.6156,3.6153,3.6157,3.6156,3.6163,3.6157,3.6149,3.6148,3.6148,3.6147,0,3.602,3.6016,3.6061,3.6069,3.6072,3.6104,3.6109,3.6134,3.6132,3.6165,3.6172,3.6168,3.6194,3.6187,3.6216,3.6211,3.626,3.6252,3.6256,3.6253,3.6287,3.6284,3.6404,3.6418,3.6314,3.6315,3.6315,0,3.6075,3.6105,3.6116,3.6132,3.614,3.6166,3.6181,3.617,3.6186,3.6202,3.6224,3.6248,3.6267,3.631,3.6309,3.633,3.6321,3.6362,3.6324,3.6326,3.6319,3.6317,3.6319,3.6369,3.637,3.6371,3.6372,0,3.6173,3.6169,3.6192,3.6214,3.6232,3.6248,3.6263,3.6277,3.6267,3.6286,3.6312,3.6327,3.6356,3.638,3.6399,3.6403,3.6385,3.6384,3.6393,3.6396,3.6396,3.6394,3.6274,3.6381,3.638,3.638,3.6379,3.6379,3.6244,3.6269,3.628,3.6306,3.6315,3.6329,3.6352,3.6352,3.6375,3.6397,3.639,3.6419,3.6429,3.6453,3.646,3.6483,3.6467,3.648,3.6483,3.6486,3.6489,3.6394,3.6486,3.6486,3.6486,3.6486,3.6485,0,3.6339,3.6345,3.6369,3.6389,3.6409,3.6391,3.6406,3.6423,3.645,3.6461,3.648,3.6509,3.6532,3.6533,3.6554,3.6572,3.6564,3.6577,3.6575,3.6576,3.6503,3.6493,3.6583,3.6583,3.6583,3.6583,3.6583,3.6583,3.6391,3.6432,3.6429,3.6474,3.6479,3.6508,3.6518,3.6529,3.6538,3.6572,3.6591,3.6592,3.6598,3.6619,3.6639,3.6639,3.6646,3.6662,3.6659,3.6591,3.6581,3.6572,3.6561,3.6665,3.6665,3.6729,3.6729,3.673]}]]